Belleville, IL

6:46 AM CDT on April 27, 2017 (GMT -0500)
Scott Air Force Base-Midamerica

Weather History for KBLV - August, 2013

Change the Weather History Date:

Monday, August 19, 2013

  Actual Average Record
Temperature  
Mean Temperature 72 °F -  
Max Temperature 84 °F 87 °F 103 °F (1962)
Min Temperature 60 °F 63 °F 51 °F (1977)
Cooling Degree Days 7    
Growing Degree Days 22 (Base 50)    
Moisture  
Dew Point 64 °F    
Average Humidity 90    
Maximum Humidity 100    
Minimum Humidity 49    
Precipitation  
Precipitation 0.00 in - - ()
Sea Level Pressure  
Sea Level Pressure 30.11 in    
Wind  
Wind Speed 1 mph (NE)    
Max Wind Speed 7 mph    
Max Gust Speed -    
Visibility 6 miles    
Events Fog , Rain    
Averages and records for this station are not official NWS values.
T = Trace of Precipitation, MM = Missing Value Source: NWS Daily Summary

Daily Weather History Graph

Daily Weather History Graph

Search for Another Location

Airport or City:

Trip Planner

Search our weather history database for the weather conditions in past years. The results will help you decide how hot, cold, wet, or windy it might be!

Date:

Astronomy

Aug. 19, 2013 Rise Set
Actual Time 6:17 AM CDT 7:47 PM CDT
Civil Twilight 5:49 AM CDT 8:15 PM CDT
Nautical Twilight 5:15 AM CDT 8:49 PM CDT
Astronomical Twilight 4:40 AM CDT 9:24 PM CDT
Moon 6:38 PM CDT (8/19) 4:36 AM CDT (8/19)
Length of Visible Light 14h 26m
Length of Day
13h 30m
Waxing Gibbous, 97% of the Moon is Illuminated
Aug 19
Waxing Gibbous
Aug 20
Full
Aug 28
Last Quarter
Sep 5
New
Sep 12
First Quarter

Hourly Weather History & Observations

Time (CDT) Temp. Heat Index Dew Point Humidity Pressure Visibility Wind Dir Wind Speed Gust Speed Precip Events Conditions
12:23 AM 66.2 °F - 66.2 °F 100% 30.12 in 9.0 mi Calm Calm - N/A   Clear
12:48 AM 64.4 °F - 64.4 °F 100% 30.11 in 9.0 mi Calm Calm - N/A   Clear
12:58 AM 65.1 °F - 64.8 °F 99% 30.12 in 8.0 mi Calm Calm - N/A   Clear
1:53 AM 64.4 °F - 64.4 °F 100% 30.10 in 5.0 mi Calm Calm - N/A   Clear
1:58 AM 64.8 °F - 64.8 °F 100% 30.10 in 5.0 mi Calm Calm - N/A   Clear
2:03 AM 64.4 °F - 64.4 °F 100% 30.10 in 5.0 mi Calm Calm - N/A   Clear
2:08 AM 64.4 °F - 64.4 °F 100% 30.10 in 3.0 mi Calm Calm - N/A   Clear
2:13 AM 64.4 °F - 64.4 °F 100% 30.10 in 2.5 mi North 2.3 mph - N/A   Clear
2:18 AM 64.4 °F - 64.4 °F 100% 30.10 in 3.0 mi Calm Calm - N/A   Clear
2:23 AM 64.4 °F - 64.4 °F 100% 30.10 in 4.0 mi Calm Calm - N/A   Clear
2:58 AM 63.9 °F - 63.9 °F 100% 30.10 in 4.0 mi Calm Calm - N/A   Clear
3:08 AM 64.4 °F - 64.4 °F 100% 30.10 in 5.0 mi North 1.2 mph - N/A   Clear
3:13 AM 62.6 °F - 62.6 °F 100% 30.10 in 5.0 mi Calm Calm - N/A   Clear
3:23 AM 64.4 °F - 64.4 °F 100% 30.10 in 2.5 mi Calm Calm - N/A   Clear
3:38 AM 64.4 °F - 64.4 °F 100% 30.10 in 2.0 mi Calm Calm - N/A   Clear
3:48 AM 64.4 °F - 64.4 °F 100% 30.10 in 2.5 mi Calm Calm - N/A   Clear
3:58 AM 63.3 °F - 63.3 °F 100% 30.10 in 2.5 mi Calm Calm - N/A   Clear
4:03 AM 64.4 °F - 64.4 °F 100% 30.10 in 3.0 mi Calm Calm - N/A   Clear
4:08 AM 62.6 °F - 62.6 °F 100% 30.10 in 5.0 mi Calm Calm - N/A   Clear
4:13 AM 62.6 °F - 62.6 °F 100% 30.10 in 4.0 mi NW 1.2 mph - N/A   Clear
4:23 AM 62.6 °F - 62.6 °F 100% 30.10 in 3.0 mi NW 2.3 mph - N/A   Clear
4:28 AM 62.6 °F - 62.6 °F 100% 30.10 in 4.0 mi NW 2.3 mph - N/A   Clear
4:48 AM 62.6 °F - 62.6 °F 100% 30.10 in 2.5 mi Calm Calm - N/A   Clear
4:53 AM 62.6 °F - 62.6 °F 100% 30.10 in 1.0 mi Calm Calm - N/A   Clear
4:58 AM 62.8 °F - 62.8 °F 100% 30.10 in 0.5 mi Calm Calm - N/A Fog Fog
5:03 AM 62.6 °F - 62.6 °F 100% 30.10 in 0.8 mi Calm Calm - N/A   Clear
5:08 AM 60.8 °F - 60.8 °F 100% 30.10 in 1.8 mi Calm Calm - N/A   Clear
5:13 AM 60.8 °F - 60.8 °F 100% 30.10 in 1.2 mi Calm Calm - N/A   Clear
5:18 AM 60.8 °F - 60.8 °F 100% 30.11 in 0.8 mi Calm Calm - N/A   Clear
5:23 AM 60.8 °F - 60.8 °F 100% 30.11 in 0.8 mi Calm Calm - N/A   Clear
5:28 AM 60.8 °F - 60.8 °F 100% 30.11 in 1.5 mi Calm Calm - N/A   Clear
5:33 AM 60.8 °F - 60.8 °F 100% 30.10 in 1.2 mi Calm Calm - N/A   Clear
5:38 AM 60.8 °F - 60.8 °F 100% 30.10 in 1.2 mi Calm Calm - N/A   Clear
5:48 AM 62.6 °F - 62.6 °F 100% 30.10 in 1.5 mi Calm Calm - N/A   Clear
5:53 AM 62.6 °F - 62.6 °F 100% 30.11 in 2.0 mi Calm Calm - N/A   Clear
5:58 AM 61.9 °F - 61.9 °F 100% 30.12 in 2.5 mi NW 2.3 mph - N/A   Clear
6:03 AM 60.8 °F - 60.8 °F 100% 30.11 in 3.0 mi NNW 3.5 mph - N/A   Clear
6:08 AM 60.8 °F - 60.8 °F 100% 30.11 in 2.5 mi Calm Calm - N/A   Clear
6:18 AM 60.8 °F - 60.8 °F 100% 30.11 in 1.5 mi Calm Calm - N/A   Clear
6:23 AM 60.8 °F - 60.8 °F 100% 30.11 in 1.0 mi Calm Calm - N/A   Clear
6:28 AM 60.8 °F - 60.8 °F 100% 30.11 in 1.0 mi Calm Calm - N/A   Clear
6:33 AM 60.8 °F - 60.8 °F 100% 30.11 in 1.5 mi Calm Calm - N/A   Clear
6:48 AM 60.8 °F - 60.8 °F 100% 30.11 in 1.8 mi Calm Calm - N/A   Clear
6:53 AM 60.8 °F - 60.8 °F 100% 30.11 in 2.0 mi Calm Calm - N/A   Clear
6:58 AM 61.7 °F - 61.5 °F 99% 30.12 in 2.5 mi Calm Calm - N/A   Clear
7:03 AM 62.6 °F - 62.6 °F 100% 30.12 in 3.0 mi Calm Calm - N/A   Clear
7:58 AM 67.6 °F - 67.5 °F 99% 30.13 in 9.0 mi Calm Calm - N/A   Clear
8:29 AM 69.8 °F - 69.8 °F 100% 30.14 in 10.0 mi Calm Calm - N/A Rain Light Rain
8:36 AM 69.8 °F - 69.8 °F 100% 30.13 in 10.0 mi Calm Calm - N/A   Clear
8:40 AM 69.8 °F - 69.8 °F 100% 30.14 in 10.0 mi Calm Calm - N/A   Clear
8:53 AM 71.6 °F - 69.8 °F 94% 30.14 in 8.0 mi Calm Calm - N/A Rain Light Rain
8:58 AM 72.0 °F - 69.4 °F 92% 30.14 in 8.0 mi Calm Calm - 0.00 in Rain Light Rain
8:59 AM 71.6 °F - 69.8 °F 94% 30.14 in 9.0 mi Calm Calm - N/A   Clear
9:14 AM 73.4 °F - 69.8 °F 88% 30.14 in 7.0 mi Calm Calm - N/A   Clear
9:15 AM 73.4 °F - 69.8 °F 88% 30.14 in 7.0 mi Variable 1.2 mph - N/A   Clear
9:38 AM 75.2 °F - 68.0 °F 78% 30.14 in 10.0 mi NNW 1.2 mph - N/A   Clear
9:58 AM 76.3 °F - 68.5 °F 77% 30.14 in 10.0 mi South 3.5 mph - N/A   Clear
10:10 AM 77.0 °F - 68.0 °F 74% 30.14 in 10.0 mi SE 4.6 mph - N/A Rain Light Rain
10:58 AM 79.2 °F - 68.7 °F 70% 30.13 in 10.0 mi ESE 4.6 mph - 0.00 in Rain Light Rain
11:08 AM 78.8 °F - 68.0 °F 69% 30.13 in 10.0 mi ENE 4.6 mph - N/A   Clear
11:27 AM 80.6 °F 83.2 °F 68.0 °F 65% 30.13 in 10.0 mi ENE 5.8 mph - N/A   Clear
11:43 AM 80.6 °F 82.7 °F 66.2 °F 61% 30.12 in 10.0 mi ENE 4.6 mph - N/A   Clear
11:58 AM 81.0 °F 83.4 °F 67.1 °F 63% 30.12 in 10.0 mi Variable 5.8 mph - N/A   Partly Cloudy
11:59 AM 80.6 °F 82.7 °F 66.2 °F 61% 30.12 in 10.0 mi East 6.9 mph - N/A   Light Drizzle
12:09 PM 80.6 °F 82.7 °F 66.2 °F 61% 30.12 in 10.0 mi East 5.8 mph - N/A   Partly Cloudy
12:58 PM 82.6 °F 84.9 °F 66.2 °F 58% 30.11 in 10.0 mi Variable 3.5 mph - 0.00 in   Mostly Cloudy
1:58 PM 83.7 °F 85.3 °F 64.8 °F 53% 30.10 in 10.0 mi East 5.8 mph - N/A   Mostly Cloudy
2:55 PM 80.6 °F 81.5 °F 60.8 °F 51% 30.11 in 10.0 mi North 2.3 mph - N/A   Scattered Clouds
2:58 PM 80.6 °F 81.5 °F 60.8 °F 51% 30.11 in 10.0 mi SW 4.6 mph - N/A   Scattered Clouds
3:58 PM 83.8 °F 85.1 °F 64.0 °F 51% 30.07 in 10.0 mi Variable 2.3 mph - N/A   Clear
4:58 PM 84.4 °F 85.4 °F 63.1 °F 49% 30.05 in 10.0 mi East 5.8 mph - N/A   Clear
6:58 PM 81.3 °F 83.0 °F 64.8 °F 57% 30.04 in 10.0 mi ENE 2.3 mph - N/A   Clear
7:58 PM 77.5 °F - 65.7 °F 67% 30.05 in 10.0 mi ENE 2.3 mph - N/A   Clear
8:58 PM 71.8 °F - 67.8 °F 87% 30.06 in 10.0 mi Calm Calm - N/A   Clear
9:58 PM 69.4 °F - 67.6 °F 94% 30.07 in 10.0 mi Calm Calm - N/A   Clear
10:58 PM 69.6 °F - 67.3 °F 92% 30.07 in 10.0 mi Calm Calm - N/A   Clear
11:38 PM 68.0 °F - 66.2 °F 94% 30.08 in 9.0 mi Calm Calm - N/A   Clear
11:58 PM 66.9 °F - 66.7 °F 99% 30.08 in 9.0 mi Calm Calm - N/A   Clear